Weather in Schleswig

Germany     54°31′00″N   9°33′55″E
temp.,
°C
wind,
m/s
gust,
m/s
humid.,
%
clouds,
%
prec.,
mm/h
press.,
hPa
HPBL,
m
24 october, sun
sun2423:00+7ssw2379100 0.0 102768
02:00+9s3876100 0.0 1027258
05:00+8ssw41077100 0.0 1026395
08:00+7ssw4117636 0.0 1026354
11:00+9s5972100 0.0 1026397
14:00+11s576228 0.0 1024754
17:00+10s48707 0.0 1022498
20:00+6sse311825 0.0 1021256
25 october, mon
mon2523:00+5s311835 0.0 1020226
02:00+4s39865 0.0 1018169
05:00+4s39890 0.0 1017183
08:00+3s410950 0.0 1016195
11:00+8ssw587981 0.0 1016270
14:00+10ssw51079100 0.0 1015430
17:00+9ssw41089100 0.1 1015439
20:00+8ssw41098100 1.3 1015430
26 october, tue
tue2623:00+9ssw51095100 0.0 1015497
02:00+10ssw51194100 0.1 1014449
05:00+10wsw3896100 5.9 1013360
08:00+10ssw4895100 9.3 1014307
11:00+11wsw4785100 1.4 1015499
14:00+13w58762 2.3 10151026
17:00+11wsw498375 0.3 1016440
20:00+9sw41095100 0.3 1017256
27 october, wed
wed2723:00+9ssw51196100 0.1 1017478
02:00+11sw61294100 0.1 1016654
05:00+11sw61394100 0.0 1016597
08:00+12sw71393100 0.0 1016720
11:00+13sw81489100 0.0 1017796
14:00+13sw81589100 0.0 1017931
17:00+14sw71487100 0.0 10171031
20:00+14sw71383100 0.1 10171034
28 october, thu
thu2823:00+12sw71590100 0.0 1017758
02:00+12sw61591100 0.0 1017602
05:00+11sw61490100 0.0 1017500
08:00+10ssw5139596 0.0 1017356
11:00+13ssw613815 0.0 1017428
14:00+15ssw5126927 0.0 1016645
17:00+14s5107444 0.0 1015428
20:00+11s413815 0.0 1014309